• en France
  • Liste des pays
  • À 7 jours
  • Température de l'eau
  • Carte satellitaire
  • Carte météo
  • Widgets météo
  • user-avatar
    Se connecter

    Météo par heure à Puerto-Inirida

    Ce jour, 14 Décembre, Jeudi

    Heure Température Précipitation Vent Pression Humidité
    00:00 +24°C° 0,2 mm 0 m/s 749 mmHg 86%
    01:00 +24°C° 0 mm 0 m/s 750 mmHg 85%
    02:00 +23°C° 0,4 mm 0 m/s 750 mmHg 87%
    03:00 +23°C° 0,4 mm 0 m/s 750 mmHg 88%
    04:00 +23°C° 0,4 mm 0 m/s 750 mmHg 90%
    05:00 +23°C° 0,3 mm 0 m/s 750 mmHg 88%
    06:00 +24°C° 0,3 mm 0 m/s 751 mmHg 86%
    07:00 +25°C° 0 mm 0 m/s 751 mmHg 84%
    08:00 +28°C° 0 mm 0 m/s 751 mmHg 73%
    09:00 +30°C° 0 mm 0 m/s 751 mmHg 62%
    10:00 +35°C° 0 mm 1 m/s 750 mmHg 51%
    11:00 +36°C° 0,1 mm 1 m/s 750 mmHg 48%
    12:00 +37°C° 0,1 mm 1 m/s 749 mmHg 46%
    13:00 +36°C° 0,1 mm 0 m/s 748 mmHg 43%
    14:00 +36°C° 0,3 mm 1 m/s 748 mmHg 53%
    15:00 +33°C° 0,3 mm 1 m/s 748 mmHg 62%
    16:00 +31°C° 0,3 mm 1 m/s 747 mmHg 72%
    17:00 +30°C° 0,6 mm 1 m/s 748 mmHg 79%
    18:00 +28°C° 0,6 mm 1 m/s 748 mmHg 85%
    19:00 +27°C° 0,6 mm 1 m/s 749 mmHg 92%
    20:00 +26°C° 0,4 mm 1 m/s 749 mmHg 93%
    21:00 +26°C° 0,4 mm 1 m/s 750 mmHg 93%
    22:00 +26°C° 0,4 mm 1 m/s 750 mmHg 94%
    23:00 +24°C° 0,9 mm 0 m/s 750 mmHg 94%

    Demain, 15 Décembre, Vendredi

    Heure Température Précipitation Vent Pression Humidité
    00:00 +24°C° 0,9 mm 0 m/s 750 mmHg 95%
    01:00 +24°C° 0,9 mm 0 m/s 750 mmHg 95%
    02:00 +23°C° 1,2 mm 0 m/s 750 mmHg 95%
    03:00 +23°C° 1,2 mm 0 m/s 749 mmHg 95%
    04:00 +23°C° 1,2 mm 0 m/s 749 mmHg 95%
    05:00 +24°C° 1 mm 0 m/s 750 mmHg 95%
    06:00 +24°C° 1 mm 0 m/s 750 mmHg 94%
    07:00 +24°C° 1 mm 0 m/s 751 mmHg 94%
    08:00 +26°C° 0,9 mm 0 m/s 751 mmHg 89%
    09:00 +29°C° 0,9 mm 1 m/s 751 mmHg 83%
    10:00 +31°C° 0,9 mm 1 m/s 751 mmHg 78%
    11:00 +32°C° 1 mm 1 m/s 750 mmHg 72%
    12:00 +33°C° 1 mm 1 m/s 749 mmHg 65%
    13:00 +34°C° 1 mm 1 m/s 749 mmHg 59%
    14:00 +33°C° 0,4 mm 1 m/s 748 mmHg 62%
    15:00 +33°C° 0,4 mm 1 m/s 747 mmHg 65%
    16:00 +32°C° 0,4 mm 1 m/s 747 mmHg 68%
    17:00 +30°C° 0,2 mm 1 m/s 747 mmHg 75%
    18:00 +29°C° 0,2 mm 1 m/s 748 mmHg 81%
    19:00 +25°C° 0,2 mm 0 m/s 748 mmHg 88%
    20:00 +25°C° 0,6 mm 0 m/s 748 mmHg 90%
    21:00 +24°C° 0,6 mm 0 m/s 749 mmHg 91%
    22:00 +24°C° 0,6 mm 0 m/s 749 mmHg 93%
    23:00 +24°C° 0,6 mm 0 m/s 749 mmHg 94%

    Après-demain, 16 Décembre, Samedi

    Heure Température Précipitation Vent Pression Humidité
    00:00 +23°C° 0,6 mm 0 m/s 749 mmHg 95%
    01:00 +23°C° 0,6 mm 0 m/s 749 mmHg 96%
    02:00 +23°C° 0,5 mm 0 m/s 748 mmHg 96%
    03:00 +23°C° 0,5 mm 0 m/s 748 mmHg 96%
    04:00 +23°C° 0,5 mm 0 m/s 748 mmHg 97%
    05:00 +23°C° 0,4 mm 0 m/s 749 mmHg 95%
    06:00 +24°C° 0,4 mm 0 m/s 749 mmHg 94%
    07:00 +24°C° 0,4 mm 0 m/s 750 mmHg 92%
    08:00 +27°C° 0 mm 0 m/s 750 mmHg 80%
    09:00 +29°C° 0 mm 0 m/s 750 mmHg 68%
    10:00 +34°C° 0 mm 1 m/s 750 mmHg 56%
    11:00 +34°C° 0,1 mm 1 m/s 749 mmHg 56%
    12:00 +35°C° 0,1 mm 1 m/s 748 mmHg 55%
    13:00 +35°C° 0,1 mm 1 m/s 748 mmHg 54%
    14:00 +34°C° 0,9 mm 1 m/s 747 mmHg 64%
    15:00 +32°C° 0,9 mm 1 m/s 747 mmHg 75%
    16:00 +30°C° 0,9 mm 1 m/s 746 mmHg 85%
    17:00 +29°C° 0,1 mm 1 m/s 747 mmHg 87%
    18:00 +28°C° 0,1 mm 1 m/s 747 mmHg 89%
    19:00 +25°C° 0,1 mm 0 m/s 748 mmHg 91%
    20:00 +24°C° 0 mm 0 m/s 748 mmHg 91%
    21:00 +24°C° 0 mm 0 m/s 748 mmHg 91%
    22:00 +23°C° 0 mm 0 m/s 749 mmHg 92%
    23:00 +23°C° 0 mm 0 m/s 748 mmHg 92%

    17 Décembre, Dimanche

    Heure Température Précipitation Vent Pression Humidité
    00:00 +23°C° 0 mm 0 m/s 748 mmHg 92%
    01:00 +22°C° 0 mm 0 m/s 748 mmHg 93%
    02:00 +22°C° 0 mm 0 m/s 748 mmHg 93%
    03:00 +22°C° 0 mm 0 m/s 748 mmHg 93%
    04:00 +21°C° 0 mm 0 m/s 748 mmHg 93%
    05:00 +22°C° 0 mm 0 m/s 748 mmHg 89%
    06:00 +23°C° 0 mm 0 m/s 749 mmHg 86%
    07:00 +24°C° 0 mm 0 m/s 750 mmHg 83%
    08:00 +28°C° 0 mm 1 m/s 750 mmHg 72%
    09:00 +31°C° 0 mm 1 m/s 750 mmHg 61%
    10:00 +33°C° 0 mm 1 m/s 750 mmHg 50%
    11:00 +35°C° 0 mm 1 m/s 750 mmHg 47%
    12:00 +36°C° 0 mm 1 m/s 749 mmHg 44%
    13:00 +37°C° 0 mm 1 m/s 748 mmHg 42%
    14:00 +36°C° 0 mm 1 m/s 747 mmHg 46%
    15:00 +35°C° 0 mm 1 m/s 747 mmHg 50%
    16:00 +34°C° 0 mm 1 m/s 746 mmHg 54%
    17:00 +32°C° 0 mm 1 m/s 747 mmHg 61%
    18:00 +30°C° 0 mm 1 m/s 748 mmHg 67%
    19:00 +28°C° 0 mm 1 m/s 748 mmHg 74%
    20:00 +25°C° 0 mm 0 m/s 748 mmHg 76%
    21:00 +25°C° 0 mm 0 m/s 749 mmHg 77%
    22:00 +24°C° 0 mm 0 m/s 749 mmHg 78%
    23:00 +24°C° 0 mm 0 m/s 749 mmHg 80%

    18 Décembre, Lundi

    Heure Température Précipitation Vent Pression Humidité
    00:00 +24°C° 0 mm 0 m/s 749 mmHg 81%
    01:00 +23°C° 0 mm 0 m/s 748 mmHg 82%
    02:00 +23°C° 0 mm 0 m/s 748 mmHg 83%
    03:00 +23°C° 0 mm 0 m/s 748 mmHg 84%
    04:00 +22°C° 0 mm 0 m/s 748 mmHg 85%
    05:00 +23°C° 0 mm 0 m/s 749 mmHg 82%
    06:00 +24°C° 0 mm 0 m/s 750 mmHg 79%
    07:00 +25°C° 0 mm 0 m/s 750 mmHg 76%
    08:00 +27°C° 0 mm 0 m/s 750 mmHg 67%
    09:00 +30°C° 0 mm 0 m/s 750 mmHg 57%
    10:00 +35°C° 0 mm 1 m/s 750 mmHg 48%
    11:00 +36°C° 0 mm 1 m/s 749 mmHg 45%
    12:00 +36°C° 0 mm 1 m/s 749 mmHg 42%
    13:00 +37°C° 0 mm 1 m/s 748 mmHg 40%
    14:00 +36°C° 0 mm 1 m/s 747 mmHg 44%
    15:00 +35°C° 0 mm 1 m/s 747 mmHg 49%
    16:00 +34°C° 0 mm 1 m/s 747 mmHg 54%
    17:00 +32°C° 0 mm 1 m/s 747 mmHg 60%
    18:00 +31°C° 0 mm 1 m/s 748 mmHg 67%
    19:00 +29°C° 0 mm 1 m/s 748 mmHg 73%
    20:00 +28°C° 0 mm 1 m/s 749 mmHg 75%
    21:00 +26°C° 0 mm 0 m/s 749 mmHg 78%
    22:00 +25°C° 0 mm 0 m/s 750 mmHg 80%
    23:00 +25°C° 0 mm 0 m/s 749 mmHg 81%

    19 Décembre, Mardi

    Heure Température Précipitation Vent Pression Humidité
    00:00 +24°C° 0 mm 0 m/s 749 mmHg 82%
    01:00 +24°C° 0 mm 0 m/s 749 mmHg 83%
    02:00 +24°C° 0 mm 0 m/s 749 mmHg 84%
    03:00 +23°C° 0 mm 0 m/s 748 mmHg 85%
    04:00 +23°C° 0 mm 0 m/s 748 mmHg 86%
    05:00 +24°C° 0 mm 0 m/s 749 mmHg 83%
    06:00 +24°C° 0 mm 0 m/s 750 mmHg 80%
    07:00 +25°C° 0 mm 0 m/s 750 mmHg 78%
    08:00 +28°C° 0 mm 0 m/s 750 mmHg 68%
    09:00 +32°C° 0 mm 1 m/s 750 mmHg 59%
    10:00 +34°C° 0 mm 1 m/s 750 mmHg 50%
    11:00 +35°C° 0 mm 1 m/s 749 mmHg 48%
    12:00 +36°C° 0 mm 1 m/s 749 mmHg 46%
    13:00 +37°C° 0 mm 1 m/s 748 mmHg 44%
    14:00 +35°C° 0,1 mm 1 m/s 747 mmHg 51%
    15:00 +34°C° 0,1 mm 1 m/s 747 mmHg 58%
    16:00 +32°C° 0,1 mm 1 m/s 747 mmHg 65%
    17:00 +30°C° 0,5 mm 1 m/s 747 mmHg 72%
    18:00 +29°C° 0,5 mm 1 m/s 748 mmHg 80%
    19:00 +27°C° 0,5 mm 1 m/s 748 mmHg 87%
    20:00 +25°C° 0,2 mm 0 m/s 749 mmHg 88%
    21:00 +24°C° 0,2 mm 0 m/s 749 mmHg 89%
    22:00 +24°C° 0,2 mm 0 m/s 750 mmHg 91%
    23:00 +24°C° 0,4 mm 0 m/s 749 mmHg 92%
    Voir plus